Location: ??????????
(55.5399°N, 38.4241°E)
Time: 17:58:19
(UTC+00:00)

Daily predictions for brighter satellites

Satellite Brightness Start Highest point End
(mag) Time Altitude Azimuth Time Altitude Azimuth Time Altitude Azimuth
ATLAS 2AS CENTAUR R/B 3.1 18:54:59 10° NW 19:02:50 76° NE 19:10:02 10° ESE
Cosmos 2333 Rocket 2.6 19:02:25 10° S 19:07:49 47° ESE 19:13:18 10° NE
Cosmos 1315 Rocket 3.0 19:09:39 10° NNW 19:13:45 76° WSW 19:17:51 10° S
Cosmos-2242 4.4 19:11:55 10° NNW 19:15:52 35° W 19:19:50 10° SSW
Cosmos 1818 3.6 19:11:03 10° SW 19:16:29 80° SE 19:21:59 10° NE
Resurs 01 Rocket 4.2 19:13:48 10° SW 19:16:38 17° W 19:19:28 10° NW
USA 215 3.6 19:11:23 10° ENE 19:17:31 41° SE 19:23:38 10° SSW
SL-16 R/B 3.5 19:13:44 10° WSW 19:19:11 46° NW 19:24:41 10° NNE
Cosmos 773 Rocket 4.0 19:14:27 10° SSW 19:19:45 74° ESE 19:25:03 10° NNE
GEOS 3 Rocket 3.7 19:14:48 10° NE 19:20:13 68° SE 19:25:35 10° SW
Cosmos 2221 2.6 19:16:37 10° N 19:21:03 75° ENE 19:25:24 10° SSE
ERS-1 Rocket 3.7 19:18:20 10° S 19:23:13 50° W 19:28:09 10° NNW
Cosmos 2278 Rocket 2.3 19:19:48 10° NW 19:25:31 84° WSW 19:31:12 10° SSE
Cosmos 1844 Rocket 4.4 19:25:32 10° NW 19:29:55 24° WSW 19:34:16 10° SSW
ATLAS 5 CENTAUR R/B 1.6 19:27:48 10° SW 19:32:05 82° SE 19:37:04 10° NE
Meteor 1-11 4.4 19:26:28 10° SSW 19:32:08 80° WNW 19:37:53 10° NNE
Cosmos 1943 Rocket 3.7 19:28:38 10° NNW 19:33:45 33° NE 19:38:50 10° E
Cosmos 1892 3.5 19:32:04 10° SSE 19:35:32 36° E 19:39:04 10° NNE
Nadezhda 3 Rocket 4.2 19:31:49 10° N 19:38:12 68° ENE 19:44:27 10° SSE
Cosmos 1606 4.5 19:35:27 10° N 19:38:36 23° ENE 19:41:44 10° ESE
SL-16 R/B 4.1 19:37:54 10° SE 19:40:42 14° E 19:43:30 10° ENE
SPOT 5 3.9 19:36:03 10° SSW 19:40:45 40° W 19:45:16 10° NNW
Cosmos 2056 Rocket 3.9 19:36:28 10° NNW 19:41:51 62° ENE 19:47:14 10° SE
Aureole 2 Rocket 3.5 19:39:41 10° N 19:42:08 27° NE 19:44:40 10° ESE
Cosmos 2154 Rocket 4.4 19:38:28 10° SSE 19:44:24 51° E 19:50:24 10° NNE
Spot 4 4.1 19:40:52 10° SSE 19:45:31 60° ENE 19:50:14 10° N
Lacrosse 5 rocket 1.6 19:41:46 10° W 19:45:57 71° N 19:49:54 10° E
ATLAS 5 CENTAUR R/B 3.1 19:46:11 10° WNW 19:48:05 26° N 19:50:02 10° NE
Cosmos 2074 Rocket 4.0 19:45:33 10° S 19:51:47 81° E 19:58:01 10° NNE
TSX-5 4.2 19:48:37 10° NW 19:51:52 45° WSW 19:55:16 12° SSE
Cosmos 2058 3.1 19:48:49 11° S 19:52:48 56° E 19:56:52 10° NNE
USA 267 3.6 19:46:54 10° SE 19:53:14 50° SW 19:59:36 10° WNW
In-Cosmos 22 Rocket 4.2 19:48:26 10° S 19:53:40 63° E 19:58:57 10° NNE
Cosmos 1408 3.3 19:54:48 13° SSE 19:57:40 38° E 20:01:01 10° NNE
CZ-4C R/B 3.5 19:52:22 10° NW 19:58:39 53° NNE 20:06:10 10° E
Cosmos 1680 Rocket 4.0 19:55:25 10° S 20:00:25 43° ESE 20:05:27 10° NE
Cosmos 1076 Rocket 3.6 19:59:22 11° S 20:03:25 63° E 20:07:40 10° NNE
COSMOS 2455 3.5 19:58:29 10° NW 20:04:27 55° NE 20:10:23 10° ESE
Cosmos 2322 Rocket 4.2 20:01:50 10° W 20:06:51 32° NW 20:11:53 10° NNE
Cosmos 1452 Rocket 4.4 20:03:45 10° NNW 20:08:49 44° NE 20:13:50 10° SE
JB-3 4.4 20:06:00 10° NNE 20:09:52 75° WNW 20:13:41 10° SSW
BREEZE-M DEB (TANK) 4.2 20:08:08 13° SSE 20:10:18 19° ESE 20:15:43 10° E
Cosmos 2344 4.1 20:06:40 10° S 20:13:24 38° ESE 20:20:45 10° NE
Cosmos 2327 Rocket 4.5 20:07:46 10° S 20:13:58 82° E 20:20:07 10° NNE
Cosmos 2151 3.7 20:10:45 14° SSE 20:14:07 39° E 20:18:07 10° NNE
Helios 1A 4.3 20:11:57 10° SE 20:15:39 32° ENE 20:19:23 10° N
MTI 4.4 20:14:05 10° N 20:17:07 51° WNW 20:20:07 10° SSW
Cosmos 923 Rocket 4.0 20:12:37 10° SSW 20:17:50 70° ESE 20:23:08 10° NNE
Cosmos 2369 Rocket 3.3 20:12:42 10° NNW 20:18:00 40° NE 20:23:16 10° ESE
ATLAS CENTAUR R/B 3.4 20:18:10 10° W 20:19:47 13° WSW 20:21:25 10° SW
Cosmos 1980 3.8 20:15:39 10° SSW 20:21:11 59° ESE 20:26:45 10° NE
Cosmos 1151 Rocket 3.6 20:18:30 10° N 20:22:45 49° ENE 20:26:23 13° SE
Cosmos 1933 4.1 20:19:22 10° N 20:23:15 44° ENE 20:26:35 13° SE
APEX 3.4 20:20:40 10° NNW 20:23:20 40° NE 20:25:52 11° ESE
ALOS 2 2.8 20:20:39 14° SSE 20:24:24 69° ENE 20:28:48 10° NNW
NOSS 3-4 (A) 4.1 20:19:10 10° NW 20:25:48 54° SW 20:32:22 13° SSE
NOSS 3-4 (C) 4.1 20:19:16 10° NW 20:25:55 54° SW 20:32:30 13° SSE
COSMOS 2428 3.0 20:20:18 10° SW 20:25:59 72° NW 20:31:42 10° NNE
Cosmos 1825 2.4 20:23:21 15° S 20:26:17 54° E 20:30:01 10° NNE
Cosmos 1340 4.4 20:24:54 12° SE 20:27:20 21° E 20:30:11 10° NE
Cosmos 1295 Rocket 4.5 20:22:00 12° S 20:27:49 77° E 20:33:57 10° NNE
Cosmos 371 Rocket 3.5 20:23:49 10° NNW 20:28:42 68° ENE 20:33:08 12° SE
Cosmos 44 4.5 20:26:52 14° SSE 20:29:04 21° ESE 20:32:22 10° ENE
GP-B 3.6 20:26:06 10° N 20:30:27 49° E 20:33:57 15° SSE
NOSS 0 Rocket 3.9 20:25:14 10° SSW 20:31:22 76° ESE 20:37:34 10° NE
Cosmos 1624 Rocket 4.2 20:27:08 10° NNW 20:32:21 64° WSW 20:36:39 15° S
Terra 3.9 20:33:25 10° SW 20:36:51 20° W 20:40:20 10° NW
NOSS 3-3 (A) 4.1 20:32:55 10° SW 20:39:02 88° NW 20:46:05 10° NE
NOSS 3-3 (C) 4.1 20:33:01 10° SW 20:39:09 88° NW 20:46:12 10° NE
Cosmos 2237 Rocket 2.2 20:33:47 10° SSW 20:39:27 73° ESE 20:45:10 10° NE
Cosmos 2219 Rocket 2.9 20:36:42 10° SW 20:42:12 55° NW 20:47:45 10° NNE
Cosmos 1782 4.0 20:40:56 10° N 20:44:36 34° ENE 20:47:59 11° SE
Cosmos 2360 Rocket 4.2 20:39:47 10° W 20:44:47 31° NW 20:49:50 10° NNE
Genesis I 3.6 20:43:45 13° SSW 20:47:00 45° SE 20:50:45 10° ENE
Thor Agena Rocket 3.6 20:42:36 10° NNE 20:47:46 84° WNW 20:52:43 11° SSW
CREW DRAGON DEMO-1 DEB 4.4 20:50:58 18° SSE 20:50:58 18° SSE 20:52:57 10° ESE
SL-4 R/B 0.6 20:50:50 25° SE 20:51:47 58° ENE 20:53:51 10° N
Cosmos 2333 Rocket 3.3 20:46:38 10° WSW 20:52:09 48° NW 20:57:45 10° NNE
ATLAS 2AS CENTAUR R/B 3.4 20:46:25 10° NW 20:53:30 43° WSW 20:59:01 15° S
Cosmos 1346 Rocket 4.2 20:52:34 14° SE 20:55:10 26° E 20:58:28 10° NE
USA 215 3.2 20:54:29 10° ENE 21:01:06 81° SSE 21:07:41 10° WSW
RESURS DK-1 3.4 20:58:29 10° NNW 21:02:29 45° NE 21:06:28 10° ESE
Cosmos 1515 Rocket 3.7 20:58:19 10° N 21:02:41 68° ENE 21:06:08 16° SSE
EO 1 Del DPAF 3.8 21:02:48 10° N 21:06:29 53° WNW 21:09:59 11° SW
Cosmos 2278 Rocket 4.0 21:04:52 10° NW 21:08:50 20° W 21:12:46 10° SW
Cosmos 1328 Rocket 3.6 21:05:51 10° NNW 21:10:09 68° W 21:13:23 17° S
Cosmos 1766 Rocket 3.5 21:07:16 16° S 21:10:43 87° ESE 21:15:10 10° NNE
Cosmos 2297 4.1 21:05:18 10° NW 21:10:52 51° WSW 21:15:17 16° S
Cosmos 2218 Rocket 4.1 21:06:07 15° S 21:11:30 75° E 21:17:48 10° NNE
Okean 3 Rocket 3.6 21:09:40 15° SSW 21:13:20 80° W 21:17:48 10° N
Cosmos 2112 Rocket 4.3 21:08:37 10° SW 21:13:58 72° WNW 21:19:21 10° NNE
Cosmos 1606 3.4 21:10:48 10° NNW 21:14:33 46° W 21:17:19 17° SSW
Cosmos 304 Rocket 3.8 21:10:27 10° NNW 21:15:20 83° ENE 21:19:36 13° SSE
Aureole 2 Rocket 3.5 21:13:21 10° NW 21:15:40 23° WSW 21:17:00 17° SSW
Cosmos 1420 Rocket 4.4 21:11:11 10° NW 21:16:20 53° WSW 21:20:22 16° S
ATLAS 5 CENTAUR R/B 3.3 21:12:52 10° W 21:17:11 40° NNW 21:22:11 10° NE
Cosmos 2366 rocket 4.1 21:11:55 15° S 21:17:17 78° E 21:23:40 10° NNE
Cosmos 2228 Rocket 3.6 21:13:25 10° N 21:17:59 58° ENE 21:21:51 14° SSE
Cosmos 1943 Rocket 2.2 21:12:23 10° NW 21:18:06 80° WSW 21:23:11 13° SSE
Cosmos 158 Rocket 4.3 21:13:52 10° SW 21:18:42 61° WNW 21:23:37 10° NNE
SL-16 R/B 2.3 21:18:55 14° SSW 21:23:44 64° ESE 21:29:23 10° NE
Lacrosse 5 rocket 1.1 21:21:08 10° WNW 21:25:11 68° SSW 21:28:59 10° ESE
Landsat 4 4.3 21:22:48 10° NNE 21:26:27 44° E 21:29:00 18° SSE
Cosmos 1959 Rocket 4.5 21:21:45 15° S 21:26:59 89° E 21:33:16 10° NNE
Cosmos 1633 3.0 21:27:04 18° SSE 21:29:28 51° E 21:33:01 10° NNE
Cosmos 2341 Rocket 4.4 21:26:54 11° SSW 21:32:51 59° WNW 21:39:01 10° N
YAOGAN 11 4.2 21:31:33 17° S 21:34:50 67° WSW 21:39:17 10° NNW
Cosmos 1331 Rocket 4.2 21:32:46 10° NNW 21:38:07 76° ENE 21:43:26 10° SSE
Cosmos 1743 Rocket 3.8 21:35:28 17° S 21:38:39 58° E 21:42:56 10° NNE
Cosmos 332 Rocket 4.2 21:34:41 10° NW 21:39:20 49° WSW 21:42:48 17° S
Meteor 2-3 Rocket 3.8 21:38:45 15° SSW 21:43:28 89° W 21:49:15 10° NNE
CZ-4C R/B 2.9 21:40:55 10° NW 21:47:46 79° SW 21:55:50 10° SE
Meteor 1-10 Rocket 4.4 21:42:37 10° NNW 21:48:15 74° ENE 21:53:22 12° SSE
COSMOS 2455 3.2 21:44:38 10° NW 21:50:25 48° WSW 21:55:18 14° S
Cosmos 1452 Rocket 4.1 21:46:02 10° NW 21:50:59 42° WSW 21:54:48 16° S
Meteor 2-6 Rocket 4.2 21:45:24 10° NNW 21:50:59 88° ENE 21:55:42 14° SSE
Helios 1A 3.8 21:48:16 17° SSW 21:51:08 39° W 21:55:06 10° NNW
Cosmos 2151 4.5 21:47:42 10° SW 21:51:31 30° WNW 21:55:20 10° N
SL-8 Rocket 4.4 21:46:21 12° SSW 21:52:05 56° WNW 21:58:10 10° N
Cosmos 405 3.4 21:49:34 10° NNW 21:53:02 50° W 21:55:20 19° SSW
Meteor 1-29 4.3 21:50:15 10° NE 21:53:14 28° E 21:55:32 14° SSE
SL-16 R/B 3.5 21:48:51 10° SE 21:54:45 46° ENE 22:00:41 10° N
Cosmos 1110 Rocket 4.0 21:49:53 10° NNW 21:55:11 79° WSW 22:00:04 12° SSE
PSLV R/B 3.8 21:51:24 10° NNE 21:55:36 60° ESE 21:58:47 17° S
Cosmos 1727 Rocket 4.4 21:52:10 10° NNW 21:58:12 55° W 22:03:21 15° SSW
Cosmos 1603 4.5 21:54:33 15° S 21:58:49 39° ESE 22:04:06 10° NE
Cosmos 389 Rocket 3.6 21:56:25 10° N 21:59:46 39° ENE 22:03:05 10° SE
ALOS 2 4.5 21:58:03 10° SW 22:01:13 20° W 22:04:26 10° NW
Cosmos 1825 4.4 21:59:19 10° WSW 22:02:08 19° WNW 22:04:57 10° NNW
Cosmos 2369 Rocket 2.4 21:56:47 10° NW 22:02:16 57° WSW 22:07:04 14° S
Resurs 1-4 Rocket 3.9 21:58:22 10° NE 22:02:28 22° E 22:06:33 10° SE
Cosmos 1408 Rocket 4.1 21:58:51 14° SSW 22:02:29 52° WNW 22:06:50 10° N
Cosmos 1340 3.4 21:59:38 14° SW 22:02:40 46° WNW 22:06:20 10° N
APEX 4.4 22:02:48 10° WNW 22:04:27 15° WSW 22:05:07 14° SW
SeaSat 1 4.1 22:03:58 10° NE 22:07:50 22° ESE 22:11:34 10° SSE
Cosmos 44 3.1 22:05:22 10° SW 22:09:44 84° NW 22:14:17 10° NE
Cosmos 1500 Rocket 3.6 22:07:42 16° SSW 22:11:11 78° WNW 22:15:35 10° N
Cosmos 1934 Rocket 4.4 22:10:15 13° S 22:15:42 59° E 22:21:51 10° NNE
Helios 1B rocket 2.5 22:11:42 10° NNE 22:15:51 77° ESE 22:19:04 16° S
Cosmos 1302 Rocket 4.1 22:11:19 10° NNW 22:16:34 82° ENE 22:21:47 10° SSE
ISS -1.4 22:18:05 10° SSE 22:18:22 10° SE 22:18:53 10° SE
Cosmos 1656 Rocket 3.6 22:13:27 10° NW 22:18:52 74° WSW 22:24:17 10° SSE
Meteor 1-27 Rocket 3.8 22:13:21 10° NNW 22:18:56 80° ENE 22:24:37 10° SSE
Cosmos 1782 4.0 22:17:23 10° NNW 22:20:51 29° W 22:23:34 14° SW
Cosmos 2237 Rocket 3.7 22:18:50 10° WSW 22:24:01 35° NW 22:29:15 10° NNE
Genesis I 4.4 22:20:55 10° WSW 22:24:40 42° NNW 22:28:24 10° NE
CREW DRAGON DEMO-1 DEB 3.4 22:23:08 10° WSW 22:26:01 37° S 22:28:53 10° ESE
Cosmos 2344 3.9 22:19:38 10° WSW 22:27:08 76° NNW 22:36:06 10° NE
Cosmos 1812 2.8 22:23:26 10° NNW 22:27:18 67° W 22:30:21 15° S
Cosmos 1805 Rocket 3.6 22:24:41 16° S 22:28:11 82° E 22:32:33 10° NNE
MOZ.5/SAFIR/RUBIN 5/SL-8 4.0 22:23:59 10° SSE 22:28:41 74° ENE 22:33:28 10° NNW
Cosmos 1346 Rocket 3.7 22:28:04 12° SW 22:31:23 39° WNW 22:35:08 10° N
CZ-2D R/B 3.3 22:27:28 10° NNE 22:32:16 34° E 22:37:06 10° SSE
UNK 4.1 22:30:58 10° SSE 22:35:30 64° ENE 22:40:06 10° N
SWARM C 4.5 22:32:11 10° N 22:35:32 85° W 22:38:11 16° S
SWARM A 4.2 22:32:16 10° N 22:35:38 77° W 22:38:12 16° S
CZ-4C R/B 3.7 22:34:42 10° SSE 22:38:41 65° ENE 22:42:28 10° N
CZ-4 R/B 4.1 22:35:46 10° N 22:40:23 61° WNW 22:44:35 13° SSW
RESURS DK-1 3.2 22:36:43 10° NW 22:40:26 32° WSW 22:43:23 14° S
USA 215 3.5 22:37:36 10° E 22:44:12 79° N 22:50:46 10° W
USA 32 4.1 22:43:50 13° SSW 22:48:29 76° W 22:53:48 10° N
Cosmos 1707 Rocket 3.9 22:46:27 10° NNW 22:50:51 55° W 22:54:44 13° S
Lacrosse 5 4.1 22:50:43 10° SE 22:52:15 11° ESE 22:53:47 10° ESE
Gbstr 26 Del rocket 3.4 22:49:29 10° SW 22:53:13 40° SSE 22:57:32 10° E
Cosmos 44 Rocket 3.6 22:51:44 13° SSW 22:55:41 51° SE 23:00:20 10° NE
Cosmos 1441 Rocket 3.5 22:52:40 13° S 22:56:11 66° E 23:00:09 10° NNE
Cosmos 1943 Rocket 3.8 22:57:15 10° WNW 23:01:01 18° W 23:04:40 10° SW
Cosmos 1943 3.3 22:56:06 12° SSW 23:01:22 81° ESE 23:07:04 10° NE
Cosmos 1862 3.9 22:58:33 13° SW 23:01:58 47° WNW 23:05:51 10° N
ATLAS 5 CENTAUR R/B 3.8 22:58:19 10° WNW 23:02:53 37° N 23:08:11 10° ENE
Cosmos 1470 Rocket 4.3 22:59:10 10° S 23:03:29 50° E 23:07:50 10° NNE
Lacrosse 5 rocket 2.5 23:00:51 10° W 23:03:46 20° SW 23:06:18 11° S
Cosmos 972 Rocket 4.5 22:57:26 10° NNW 23:03:59 73° WSW 23:09:45 10° SSE
Cosmos 494 Rocket 4.1 23:00:18 11° SW 23:05:13 74° WNW 23:10:24 10° NNE
SL-16 R/B 3.4 23:02:57 10° WSW 23:08:14 38° NW 23:13:33 10° NNE
IKONOS-2 4.5 23:04:33 10° SSE 23:08:48 81° WSW 23:13:05 10° NNW
DELTA 2 DEB (DPAF) 4.5 23:04:45 11° S 23:08:55 50° W 23:13:18 10° NNW
Cosmos 2123 Rocket 4.5 23:03:50 10° NNW 23:09:44 46° W 23:15:27 11° SSW
Cosmos 1862 Rocket 3.7 23:07:02 10° NNW 23:11:26 67° W 23:15:51 10° S
Meteor 1-4 Rocket 2.6 23:11:17 10° NNW 23:15:05 85° WSW 23:18:49 10° S
Cosmos 1633 Rocket 3.1 23:11:22 11° SSW 23:15:30 81° WNW 23:19:57 10° N
BREEZE-M DEB (TANK) 4.4 23:11:24 10° SW 23:16:12 22° S 23:18:56 10° SE
SL-24 DEB 4.3 23:13:55 10° N 23:18:36 74° W 23:23:19 10° SSW
Sich 1 3.6 23:15:28 11° SW 23:19:26 46° WNW 23:23:39 10° N
NOSS 2-1 (C) 4.1 23:16:13 10° NW 23:20:48 88° NE 23:27:11 10° SE
NOSS 2-1 (D) 4.1 23:20:52 10° NW 23:25:30 88° SW 23:32:00 10° SE
Meteor 1-29 4.3 23:22:58 10° N 23:25:57 29° WNW 23:28:55 10° SW
Okean 1 3.4 23:23:17 10° N 23:27:16 84° ENE 23:31:15 10° SSE
Cosmos 405 Rocket 4.4 23:26:08 10° SSE 23:29:32 29° E 23:32:54 10° NNE
CZ-4B R/B 4.0 23:26:16 10° NNE 23:31:26 60° ESE 23:36:25 10° S
Okean 1-7 3.3 23:29:28 10° N 23:33:54 76° ENE 23:38:18 10° SSE
Cosmos 389 Rocket 4.0 23:31:32 10° NW 23:34:17 21° W 23:36:59 10° SW
Iridium 4 Rocket 4.0 23:28:59 10° SSW 23:34:47 60° W 23:40:20 10° N
SL-4 R/B 1.7 23:32:32 11° SSW 23:35:12 46° SE 23:37:57 10° NE
CZ-4C R/B 3.8 23:29:52 10° WNW 23:35:50 29° WSW 23:42:27 10° S
Cosmos 1459 Rocket 4.4 23:32:16 10° S 23:38:11 61° E 23:44:14 10° NNE
SL-16 R/B 3.0 23:32:25 10° S 23:38:24 47° W 23:44:27 10° NNW
Cosmos 1992 Rocket 4.1 23:33:24 10° NNW 23:38:34 58° WSW 23:43:42 10° S
Cosmos 1605 Rocket 4.3 23:34:46 10° SSW 23:41:04 62° WNW 23:47:20 10° N
Cosmos 1603 4.3 23:37:16 10° SW 23:42:50 55° NW 23:48:30 10° NNE
Resurs 1-4 Rocket 2.2 23:37:33 10° NNE 23:42:54 79° WNW 23:48:14 10° SSW
Cosmos 2369 Rocket 4.1 23:43:07 10° WNW 23:45:07 12° W 23:47:07 10° WSW
Cosmos 1269 Rocket 4.4 23:40:24 10° SW 23:45:37 59° WNW 23:50:53 10° NNE
SeaSat 1 2.5 23:40:55 10° NNE 23:45:53 83° NW 23:50:49 10° SW
Cosmos 1933 Rocket 3.6 23:43:51 10° S 23:48:12 90° E 23:52:34 10° NNE
Cosmos 1666 Rocket 4.5 23:44:36 10° SW 23:48:43 37° WNW 23:52:50 10° N
Helios 1B rocket 4.5 23:47:47 10° N 23:50:40 19° NW 23:53:32 10° W
Cosmos 1607 4.1 23:45:59 10° SW 23:52:09 72° SE 23:58:30 10° NE
Cosmos 1703 Rocket 3.7 23:48:29 10° NNW 23:52:58 69° W 23:57:25 10° S
ADEOS II 2.5 23:49:08 10° NNE 23:54:23 62° ESE 23:59:35 10° S
ISS -2.6 23:51:25 10° SW 23:54:23 29° SSE 23:57:21 10° E
